Wetterdaten: Sonntag, 04.01.2015
Datum Zeit Temp. A. Temp. A. min Temp. A. max Feuchte A. Luftdruck Regen Wind Richtung Richtung Sonnenschein ET Solar Taupunkt Windchill Windben Empfang
04.01.2015 00:00 1,3 C 0,0 C 0,0 C 91 % 1020,5 hPa 0,0 l/m 7,9 km/h (2 Bft) W 280 0 min 0,000 mm 0 W/m -0,0 C -1,2 C 7,9 km/h (2 Bft) 0,00 %
04.01.2015 00:05 1,3 C 0,0 C 0,0 C 91 % 1020,5 hPa 0,0 l/m 7,0 km/h (2 Bft) W 270 0 min 0,000 mm 0 W/m -0,0 C -0,9 C 7,0 km/h (2 Bft) 0,00 %
04.01.2015 00:10 1,2 C 0,0 C 0,0 C 90 % 1020,5 hPa 0,0 l/m 4,2 km/h (1 Bft) N-NW 345 0 min 0,000 mm 0 W/m -0,3 C 1,2 C 4,2 km/h (1 Bft) 0,00 %
04.01.2015 00:15 1,0 C 0,0 C 0,0 C 90 % 1022,5 hPa 0,0 l/m 2,1 km/h (1 Bft) W-NW 285 0 min 0,000 mm 0 W/m -0,5 C 1,0 C 2,1 km/h (1 Bft) 0,00 %
04.01.2015 00:20 1,0 C 0,0 C 0,0 C 90 % 1022,5 hPa 0,0 l/m 1,5 km/h (1 Bft) O 85 0 min 0,000 mm 0 W/m -0,5 C 1,0 C 1,5 km/h (1 Bft) 0,00 %
04.01.2015 00:25 0,9 C 0,0 C 0,0 C 90 % 1022,5 hPa 0,0 l/m 0,0 km/h (0 Bft) NW 325 0 min 0,000 mm 0 W/m -0,6 C 0,9 C 0,0 km/h (0 Bft) 0,00 %
04.01.2015 00:30 0,8 C 0,0 C 0,0 C 90 % 1022,5 hPa 0,0 l/m 0,0 km/h (0 Bft) NW 310 0 min 0,000 mm 0 W/m -0,6 C 0,8 C 0,0 km/h (0 Bft) 0,00 %
04.01.2015 00:35 0,8 C 0,0 C 0,0 C 90 % 1022,5 hPa 0,0 l/m 3,3 km/h (1 Bft) N 350 0 min 0,000 mm 0 W/m -0,6 C 0,8 C 3,3 km/h (1 Bft) 0,00 %
04.01.2015 00:40 0,9 C 0,0 C 0,0 C 90 % 1022,5 hPa 0,0 l/m 0,6 km/h (0 Bft) W 280 0 min 0,000 mm 0 W/m -0,6 C 0,9 C 0,6 km/h (0 Bft) 0,00 %
04.01.2015 00:45 1,1 C 0,0 C 0,0 C 90 % 1022,5 hPa 0,0 l/m 5,7 km/h (1 Bft) N-NO 25 0 min 0,000 mm 0 W/m -0,4 C -0,6 C 5,7 km/h (1 Bft) 0,00 %
04.01.2015 00:50 1,3 C 0,0 C 0,0 C 90 % 1022,5 hPa 0,0 l/m 8,8 km/h (2 Bft) NO 45 0 min 0,000 mm 0 W/m -0,2 C -1,4 C 8,8 km/h (2 Bft) 0,00 %
04.01.2015 00:55 1,3 C 0,0 C 0,0 C 89 % 1022,5 hPa 0,0 l/m 6,1 km/h (2 Bft) N-NW 335 0 min 0,000 mm 0 W/m -0,3 C -0,6 C 6,1 km/h (2 Bft) 0,00 %
04.01.2015 01:00 1,3 C 0,0 C 0,0 C 89 % 1022,5 hPa 0,0 l/m 7,6 km/h (2 Bft) N 10 0 min 0,000 mm 0 W/m -0,3 C -1,1 C 7,6 km/h (2 Bft) 0,00 %
04.01.2015 01:05 1,3 C 0,0 C 0,0 C 89 % 1022,5 hPa 0,0 l/m 4,8 km/h (1 Bft) N-NW 335 0 min 0,000 mm 0 W/m -0,3 C -0,0 C 4,8 km/h (1 Bft) 0,00 %
04.01.2015 01:10 1,3 C 0,0 C 0,0 C 89 % 1022,5 hPa 0,0 l/m 0,0 km/h (0 Bft) N 0 0 min 0,000 mm 0 W/m -0,3 C 1,3 C 0,0 km/h (0 Bft) 0,00 %
04.01.2015 01:15 1,3 C 0,0 C 0,0 C 89 % 1023,5 hPa 0,0 l/m 0,0 km/h (0 Bft) N 355 0 min 0,000 mm 0 W/m -0,3 C 1,3 C 0,0 km/h (0 Bft) 0,00 %
04.01.2015 01:20 1,3 C 0,0 C 0,0 C 88 % 1023,5 hPa 0,0 l/m 9,7 km/h (2 Bft) W-SW 250 0 min 0,000 mm 0 W/m -0,5 C -1,7 C 9,7 km/h (2 Bft) 0,00 %
04.01.2015 01:25 1,3 C 0,0 C 0,0 C 88 % 1023,5 hPa 0,0 l/m 4,2 km/h (1 Bft) W-NW 300 0 min 0,000 mm 0 W/m -0,5 C 1,3 C 4,2 km/h (1 Bft) 0,00 %
04.01.2015 01:30 1,3 C 0,0 C 0,0 C 88 % 1023,5 hPa 0,0 l/m 7,6 km/h (2 Bft) N 350 0 min 0,000 mm 0 W/m -0,5 C -1,1 C 7,6 km/h (2 Bft) 0,00 %
04.01.2015 01:35 1,4 C 0,0 C 0,0 C 88 % 1023,5 hPa 0,0 l/m 14,5 km/h (3 Bft) N 350 0 min 0,000 mm 0 W/m -0,4 C -2,6 C 14,5 km/h (3 Bft) 0,00 %
04.01.2015 01:40 1,4 C 0,0 C 0,0 C 88 % 1023,5 hPa 0,0 l/m 14,5 km/h (3 Bft) W 280 0 min 0,000 mm 0 W/m -0,4 C -2,6 C 14,5 km/h (3 Bft) 0,00 %
04.01.2015 01:45 1,4 C 0,0 C 0,0 C 87 % 1023,5 hPa 0,0 l/m 10,9 km/h (2 Bft) W-NW 285 0 min 0,000 mm 0 W/m -0,5 C -1,9 C 10,9 km/h (2 Bft) 0,00 %
04.01.2015 01:50 1,4 C 0,0 C 0,0 C 87 % 1023,5 hPa 0,0 l/m 12,1 km/h (2 Bft) N-NO 30 0 min 0,000 mm 0 W/m -0,5 C -2,1 C 12,1 km/h (2 Bft) 0,00 %
04.01.2015 01:55 1,4 C 0,0 C 0,0 C 87 % 1023,5 hPa 0,0 l/m 13,0 km/h (3 Bft) N 10 0 min 0,000 mm 0 W/m -0,5 C -2,3 C 13,0 km/h (3 Bft) 0,00 %
04.01.2015 02:00 1,5 C 0,0 C 0,0 C 87 % 1024,5 hPa 0,0 l/m 21,5 km/h (4 Bft) W-NW 295 0 min 0,000 mm 0 W/m -0,4 C -3,6 C 21,5 km/h (4 Bft) 0,00 %
04.01.2015 02:05 1,5 C 0,0 C 0,0 C 87 % 1024,5 hPa 0,0 l/m 18,8 km/h (3 Bft) N-NW 330 0 min 0,000 mm 0 W/m -0,4 C -3,2 C 18,8 km/h (3 Bft) 0,00 %
04.01.2015 02:10 1,5 C 0,0 C 0,0 C 87 % 1024,5 hPa 0,0 l/m 17,9 km/h (3 Bft) W-NW 300 0 min 0,000 mm 0 W/m -0,4 C -3,0 C 17,9 km/h (3 Bft) 0,00 %
04.01.2015 02:15 1,5 C 0,0 C 0,0 C 87 % 1024,5 hPa 0,0 l/m 13,0 km/h (3 Bft) W 275 0 min 0,000 mm 0 W/m -0,4 C -2,2 C 13,0 km/h (3 Bft) 0,00 %
04.01.2015 02:20 1,4 C 0,0 C 0,0 C 87 % 1024,5 hPa 0,0 l/m 8,2 km/h (2 Bft) W-NW 290 0 min 0,000 mm 0 W/m -0,5 C -1,2 C 8,2 km/h (2 Bft) 0,00 %
04.01.2015 02:25 1,4 C 0,0 C 0,0 C 87 % 1024,5 hPa 0,0 l/m 10,0 km/h (2 Bft) O-SO 115 0 min 0,000 mm 0 W/m -0,5 C -1,6 C 10,0 km/h (2 Bft) 0,00 %
04.01.2015 02:30 1,5 C 0,0 C 0,0 C 87 % 1024,5 hPa 0,0 l/m 6,7 km/h (2 Bft) N 10 0 min 0,000 mm 0 W/m -0,4 C -0,6 C 6,7 km/h (2 Bft) 0,00 %
04.01.2015 02:35 1,5 C 0,0 C 0,0 C 86 % 1024,5 hPa 0,3 l/m 3,6 km/h (1 Bft) NW 310 0 min 0,000 mm 0 W/m -0,6 C 1,5 C 3,6 km/h (1 Bft) 0,00 %
04.01.2015 02:40 1,5 C 0,0 C 0,0 C 86 % 1024,5 hPa 0,0 l/m 3,3 km/h (1 Bft) N-NO 15 0 min 0,000 mm 0 W/m -0,6 C 1,5 C 3,3 km/h (1 Bft) 0,00 %
04.01.2015 02:45 1,4 C 0,0 C 0,0 C 86 % 1025,5 hPa 0,0 l/m 2,4 km/h (1 Bft) W-NW 290 0 min 0,000 mm 0 W/m -0,7 C 1,4 C 2,4 km/h (1 Bft) 0,00 %
04.01.2015 02:50 1,4 C 0,0 C 0,0 C 87 % 1025,5 hPa 0,0 l/m 5,4 km/h (1 Bft) W 260 0 min 0,000 mm 0 W/m -0,5 C -0,2 C 5,4 km/h (1 Bft) 0,00 %
04.01.2015 02:55 1,4 C 0,0 C 0,0 C 87 % 1025,5 hPa 0,0 l/m 8,2 km/h (2 Bft) W-SW 255 0 min 0,000 mm 0 W/m -0,5 C -1,2 C 8,2 km/h (2 Bft) 0,00 %
04.01.2015 03:00 1,2 C 0,0 C 0,0 C 86 % 1025,5 hPa 0,0 l/m 0,0 km/h (0 Bft) NW 305 0 min 0,000 mm 0 W/m -0,9 C 1,2 C 0,0 km/h (0 Bft) 0,00 %
04.01.2015 03:05 1,1 C 0,0 C 0,0 C 87 % 1025,5 hPa 0,0 l/m 0,0 km/h (0 Bft) SW 235 0 min 0,000 mm 0 W/m -0,8 C 1,1 C 0,0 km/h (0 Bft) 0,00 %
04.01.2015 03:10 1,0 C 0,0 C 0,0 C 87 % 1025,5 hPa 0,0 l/m 0,0 km/h (0 Bft) W-NW 295 0 min 0,000 mm 0 W/m -0,9 C 1,0 C 0,0 km/h (0 Bft) 0,00 %
04.01.2015 03:15 0,9 C 0,0 C 0,0 C 87 % 1025,5 hPa 0,0 l/m 0,0 km/h (0 Bft) N-NW 335 0 min 0,000 mm 0 W/m -1,0 C 0,9 C 0,0 km/h (0 Bft) 0,00 %
04.01.2015 03:20 0,9 C 0,0 C 0,0 C 87 % 1025,5 hPa 0,0 l/m 0,0 km/h (0 Bft) W-SW 240 0 min 0,000 mm 0 W/m -1,0 C 0,9 C 0,0 km/h (0 Bft) 0,00 %
04.01.2015 03:25 0,8 C 0,0 C 0,0 C 88 % 1025,5 hPa 0,0 l/m 0,0 km/h (0 Bft) NW 325 0 min 0,000 mm 0 W/m -1,0 C 0,8 C 0,0 km/h (0 Bft) 0,00 %
04.01.2015 03:30 0,7 C 0,0 C 0,0 C 88 % 1025,5 hPa 0,0 l/m 2,7 km/h (1 Bft) W 275 0 min 0,000 mm 0 W/m -1,1 C 0,7 C 2,7 km/h (1 Bft) 0,00 %
04.01.2015 03:35 0,7 C 0,0 C 0,0 C 88 % 1025,5 hPa 0,0 l/m 1,2 km/h (1 Bft) S-SW 200 0 min 0,000 mm 0 W/m -1,1 C 0,7 C 1,2 km/h (1 Bft) 0,00 %
04.01.2015 03:40 0,7 C 0,0 C 0,0 C 88 % 1025,5 hPa 0,0 l/m 0,6 km/h (0 Bft) W-NW 295 0 min 0,000 mm 0 W/m -1,1 C 0,7 C 0,6 km/h (0 Bft) 0,00 %
04.01.2015 03:45 0,8 C 0,0 C 0,0 C 88 % 1025,5 hPa 0,0 l/m 0,0 km/h (0 Bft) NW 320 0 min 0,000 mm 0 W/m -1,0 C 0,8 C 0,0 km/h (0 Bft) 0,00 %
04.01.2015 03:50 0,9 C 0,0 C 0,0 C 88 % 1025,5 hPa 0,0 l/m 0,0 km/h (0 Bft) N 10 0 min 0,000 mm 0 W/m -0,9 C 0,9 C 0,0 km/h (0 Bft) 0,00 %
04.01.2015 03:55 0,9 C 0,0 C 0,0 C 88 % 1025,5 hPa 0,0 l/m 0,0 km/h (0 Bft) NW 315 0 min 0,000 mm 0 W/m -0,9 C 0,9 C 0,0 km/h (0 Bft) 0,00 %
04.01.2015 04:00 0,7 C 0,0 C 0,0 C 88 % 1025,5 hPa 0,0 l/m 0,0 km/h (0 Bft) W-NW 300 0 min 0,000 mm 0 W/m -1,1 C 0,7 C 0,0 km/h (0 Bft) 0,00 %
04.01.2015 04:05 0,6 C 0,0 C 0,0 C 88 % 1025,5 hPa 0,0 l/m 0,0 km/h (0 Bft) W-SW 245 0 min 0,000 mm 0 W/m -1,2 C 0,6 C 0,0 km/h (0 Bft) 0,00 %
04.01.2015 04:10 0,6 C 0,0 C 0,0 C 88 % 1025,5 hPa 0,0 l/m 0,0 km/h (0 Bft) S-SW 195 0 min 0,000 mm 0 W/m -1,2 C 0,6 C 0,0 km/h (0 Bft) 0,00 %
04.01.2015 04:15 0,5 C 0,0 C 0,0 C 88 % 1025,5 hPa 0,0 l/m 0,0 km/h (0 Bft) NW 325 0 min 0,000 mm 0 W/m -1,3 C 0,5 C 0,0 km/h (0 Bft) 0,00 %
04.01.2015 04:20 0,4 C 0,0 C 0,0 C 88 % 1025,5 hPa 0,0 l/m 0,0 km/h (0 Bft) O-NO 75 0 min 0,000 mm 0 W/m -1,3 C 0,4 C 0,0 km/h (0 Bft) 0,00 %
04.01.2015 04:25 0,3 C 0,0 C 0,0 C 88 % 1025,5 hPa 0,0 l/m 0,0 km/h (0 Bft) N-NW 330 0 min 0,000 mm 0 W/m -1,4 C 0,3 C 0,0 km/h (0 Bft) 0,00 %
04.01.2015 04:30 0,4 C 0,0 C 0,0 C 88 % 1026,5 hPa 0,0 l/m 0,0 km/h (0 Bft) W-SW 240 0 min 0,000 mm 0 W/m -1,3 C 0,4 C 0,0 km/h (0 Bft) 0,00 %
04.01.2015 04:35 0,3 C 0,0 C 0,0 C 88 % 1026,5 hPa 0,0 l/m 0,0 km/h (0 Bft) NO 55 0 min 0,000 mm 0 W/m -1,4 C 0,3 C 0,0 km/h (0 Bft) 0,00 %
04.01.2015 04:40 0,2 C 0,0 C 0,0 C 88 % 1026,5 hPa 0,0 l/m 0,0 km/h (0 Bft) NO 50 0 min 0,000 mm 0 W/m -1,5 C 0,2 C 0,0 km/h (0 Bft) 0,00 %
04.01.2015 04:45 0,0 C 0,0 C 0,0 C 88 % 1025,5 hPa 0,0 l/m 0,0 km/h (0 Bft) N 5 0 min 0,000 mm 0 W/m -1,7 C 0,0 C 0,0 km/h (0 Bft) 0,00 %
04.01.2015 04:50 -0,2 C 0,0 C 0,0 C 89 % 1025,5 hPa 0,0 l/m 0,0 km/h (0 Bft) N 355 0 min 0,000 mm 0 W/m -1,8 C -0,2 C 0,0 km/h (0 Bft) 0,00 %
04.01.2015 04:55 0,0 C 0,0 C 0,0 C 89 % 1025,5 hPa 0,0 l/m 0,0 km/h (0 Bft) N 0 0 min 0,000 mm 0 W/m -1,6 C 0,0 C 0,0 km/h (0 Bft) 0,00 %
04.01.2015 05:00 0,0 C 0,0 C 0,0 C 89 % 1026,5 hPa 0,0 l/m 0,0 km/h (0 Bft) O-SO 105 0 min 0,000 mm 0 W/m -1,6 C 0,0 C 0,0 km/h (0 Bft) 0,00 %
04.01.2015 05:05 -0,2 C 0,0 C 0,0 C 89 % 1026,5 hPa 0,0 l/m 0,0 km/h (0 Bft) N-NO 25 0 min 0,000 mm 0 W/m -1,8 C -0,2 C 0,0 km/h (0 Bft) 0,00 %
04.01.2015 05:10 -0,3 C 0,0 C 0,0 C 88 % 1026,5 hPa 0,0 l/m 0,0 km/h (0 Bft) O 80 0 min 0,000 mm 0 W/m -2,0 C -0,3 C 0,0 km/h (0 Bft) 0,00 %
04.01.2015 05:15 -0,4 C 0,0 C 0,0 C 88 % 1026,5 hPa 0,0 l/m 0,0 km/h (0 Bft) N-NW 335 0 min 0,000 mm 0 W/m -2,1 C -0,4 C 0,0 km/h (0 Bft) 0,00 %
04.01.2015 05:20 -0,6 C 0,0 C 0,0 C 89 % 1026,5 hPa 0,0 l/m 0,0 km/h (0 Bft) N-NW 345 0 min 0,000 mm 0 W/m -2,2 C -0,6 C 0,0 km/h (0 Bft) 0,00 %
04.01.2015 05:25 -0,8 C 0,0 C 0,0 C 89 % 1026,5 hPa 0,0 l/m 0,0 km/h (0 Bft) N 350 0 min 0,000 mm 0 W/m -2,4 C -0,8 C 0,0 km/h (0 Bft) 0,00 %
04.01.2015 05:30 -0,8 C 0,0 C 0,0 C 89 % 1026,5 hPa 0,0 l/m 0,0 km/h (0 Bft) N-NO 20 0 min 0,000 mm 0 W/m -2,4 C -0,8 C 0,0 km/h (0 Bft) 0,00 %
04.01.2015 05:35 -0,8 C 0,0 C 0,0 C 89 % 1026,5 hPa 0,0 l/m 0,0 km/h (0 Bft) W-SW 245 0 min 0,000 mm 0 W/m -2,4 C -0,8 C 0,0 km/h (0 Bft) 0,00 %
04.01.2015 05:40 -0,9 C 0,0 C 0,0 C 89 % 1026,5 hPa 0,0 l/m 0,0 km/h (0 Bft) N-NO 30 0 min 0,000 mm 0 W/m -2,5 C -0,9 C 0,0 km/h (0 Bft) 0,00 %
04.01.2015 05:45 -1,0 C 0,0 C 0,0 C 89 % 1026,5 hPa 0,0 l/m 0,0 km/h (0 Bft) S-SO 160 0 min 0,000 mm 0 W/m -2,6 C -1,0 C 0,0 km/h (0 Bft) 0,00 %
04.01.2015 05:50 -0,6 C 0,0 C 0,0 C 89 % 1026,5 hPa 0,0 l/m 0,0 km/h (0 Bft) W-NW 295 0 min 0,000 mm 0 W/m -2,2 C -0,6 C 0,0 km/h (0 Bft) 0,00 %
04.01.2015 05:55 -0,6 C 0,0 C 0,0 C 89 % 1026,5 hPa 0,0 l/m 0,0 km/h (0 Bft) O 95 0 min 0,000 mm 0 W/m -2,2 C -0,6 C 0,0 km/h (0 Bft) 0,00 %
04.01.2015 06:00 -0,6 C 0,0 C 0,0 C 89 % 1026,5 hPa 0,0 l/m 0,0 km/h (0 Bft) O 95 0 min 0,000 mm 0 W/m -2,2 C -0,6 C 0,0 km/h (0 Bft) 0,00 %
04.01.2015 06:05 -0,2 C 0,0 C 0,0 C 90 % 1026,5 hPa 0,0 l/m 0,0 km/h (0 Bft) N-NO 20 0 min 0,000 mm 0 W/m -1,6 C -0,2 C 0,0 km/h (0 Bft) 0,00 %
04.01.2015 06:10 -0,4 C 0,0 C 0,0 C 89 % 1026,5 hPa 0,0 l/m 0,0 km/h (0 Bft) S-SO 160 0 min 0,000 mm 0 W/m -2,0 C -0,4 C 0,0 km/h (0 Bft) 0,00 %
04.01.2015 06:15 -0,7 C 0,0 C 0,0 C 89 % 1026,5 hPa 0,0 l/m 0,0 km/h (0 Bft) S-SO 165 0 min 0,000 mm 0 W/m -2,3 C -0,7 C 0,0 km/h (0 Bft) 0,00 %
04.01.2015 06:20 -0,9 C 0,0 C 0,0 C 90 % 1026,5 hPa 0,0 l/m 0,0 km/h (0 Bft) W 265 0 min 0,000 mm 0 W/m -2,3 C -0,9 C 0,0 km/h (0 Bft) 0,00 %
04.01.2015 06:25 -1,0 C 0,0 C 0,0 C 90 % 1026,5 hPa 0,0 l/m 0,0 km/h (0 Bft) N-NW 345 0 min 0,000 mm 0 W/m -2,4 C -1,0 C 0,0 km/h (0 Bft) 0,00 %
04.01.2015 06:30 -1,2 C 0,0 C 0,0 C 89 % 1027,5 hPa 0,0 l/m 0,0 km/h (0 Bft) N-NW 330 0 min 0,000 mm 0 W/m -2,8 C -1,2 C 0,0 km/h (0 Bft) 0,00 %
04.01.2015 06:35 -1,2 C 0,0 C 0,0 C 89 % 1027,5 hPa 0,0 l/m 0,0 km/h (0 Bft) N-NW 345 0 min 0,000 mm 0 W/m -2,8 C -1,2 C 0,0 km/h (0 Bft) 0,00 %
04.01.2015 06:40 -0,9 C 0,0 C 0,0 C 90 % 1027,5 hPa 0,0 l/m 0,0 km/h (0 Bft) NW 325 0 min 0,000 mm 0 W/m -2,3 C -0,9 C 0,0 km/h (0 Bft) 0,00 %
04.01.2015 06:45 -0,9 C 0,0 C 0,0 C 90 % 1027,5 hPa 0,0 l/m 0,0 km/h (0 Bft) N 350 0 min 0,000 mm 0 W/m -2,3 C -0,9 C 0,0 km/h (0 Bft) 0,00 %
04.01.2015 06:50 -0,7 C 0,0 C 0,0 C 90 % 1027,5 hPa 0,0 l/m 0,0 km/h (0 Bft) W-SW 250 0 min 0,000 mm 0 W/m -2,1 C -0,7 C 0,0 km/h (0 Bft) 0,00 %
04.01.2015 06:55 -0,7 C 0,0 C 0,0 C 90 % 1027,5 hPa 0,0 l/m 0,0 km/h (0 Bft) N-NW 335 0 min 0,000 mm 0 W/m -2,1 C -0,7 C 0,0 km/h (0 Bft) 0,00 %
04.01.2015 07:00 -0,8 C 0,0 C 0,0 C 90 % 1027,5 hPa 0,0 l/m 0,0 km/h (0 Bft) N 355 0 min 0,000 mm 0 W/m -2,2 C -0,8 C 0,0 km/h (0 Bft) 0,00 %
04.01.2015 07:05 -0,7 C 0,0 C 0,0 C 90 % 1027,5 hPa 0,0 l/m 0,0 km/h (0 Bft) N-NW 345 0 min 0,000 mm 0 W/m -2,1 C -0,7 C 0,0 km/h (0 Bft) 0,00 %
04.01.2015 07:10 -0,7 C 0,0 C 0,0 C 90 % 1027,5 hPa 0,0 l/m 0,0 km/h (0 Bft) W 280 0 min 0,000 mm 0 W/m -2,1 C -0,7 C 0,0 km/h (0 Bft) 0,00 %
04.01.2015 07:15 -0,7 C 0,0 C 0,0 C 90 % 1027,5 hPa 0,0 l/m 0,0 km/h (0 Bft) SO 145 0 min 0,000 mm 0 W/m -2,1 C -0,7 C 0,0 km/h (0 Bft) 0,00 %
04.01.2015 07:20 -0,3 C 0,0 C 0,0 C 90 % 1027,5 hPa 0,0 l/m 0,0 km/h (0 Bft) N-NW 345 0 min 0,000 mm 0 W/m -1,7 C -0,3 C 0,0 km/h (0 Bft) 0,00 %
04.01.2015 07:25 -0,3 C 0,0 C 0,0 C 90 % 1027,5 hPa 0,0 l/m 0,0 km/h (0 Bft) W 280 0 min 0,000 mm 0 W/m -1,7 C -0,3 C 0,0 km/h (0 Bft) 0,00 %
04.01.2015 07:30 -0,1 C 0,0 C 0,0 C 90 % 1027,5 hPa 0,0 l/m 0,0 km/h (0 Bft) W-NW 285 0 min 0,000 mm 0 W/m -1,5 C -0,1 C 0,0 km/h (0 Bft) 0,00 %
04.01.2015 07:35 -0,1 C 0,0 C 0,0 C 89 % 1027,5 hPa 0,0 l/m 0,0 km/h (0 Bft) W 280 0 min 0,000 mm 0 W/m -1,7 C -0,1 C 0,0 km/h (0 Bft) 0,00 %
04.01.2015 07:40 0,0 C 0,0 C 0,0 C 89 % 1027,5 hPa 0,0 l/m 0,0 km/h (0 Bft) W 280 0 min 0,000 mm 0 W/m -1,6 C 0,0 C 0,0 km/h (0 Bft) 0,00 %
04.01.2015 07:45 0,0 C 0,0 C 0,0 C 89 % 1027,5 hPa 0,0 l/m 0,0 km/h (0 Bft) NW 320 0 min 0,000 mm 0 W/m -1,6 C 0,0 C 0,0 km/h (0 Bft) 0,00 %
04.01.2015 07:50 0,1 C 0,0 C 0,0 C 89 % 1027,5 hPa 0,0 l/m 0,0 km/h (0 Bft) N 350 0 min 0,000 mm 0 W/m -1,5 C 0,1 C 0,0 km/h (0 Bft) 0,00 %
04.01.2015 07:55 0,2 C 0,0 C 0,0 C 89 % 1027,5 hPa 0,0 l/m 0,0 km/h (0 Bft) NW 320 0 min 0,000 mm 0 W/m -1,4 C 0,2 C 0,0 km/h (0 Bft) 0,00 %
04.01.2015 08:00 0,3 C 0,0 C 0,0 C 89 % 1028,5 hPa 0,0 l/m 0,0 km/h (0 Bft) W-NW 295 0 min 0,000 mm 0 W/m -1,3 C 0,3 C 0,0 km/h (0 Bft) 0,00 %
04.01.2015 08:05 0,1 C 0,0 C 0,0 C 89 % 1028,5 hPa 0,0 l/m 0,0 km/h (0 Bft) S-SW 205 0 min 0,000 mm 0 W/m -1,5 C 0,1 C 0,0 km/h (0 Bft) 0,00 %
04.01.2015 08:10 -0,7 C 0,0 C 0,0 C 89 % 1028,5 hPa 0,0 l/m 0,0 km/h (0 Bft) O-NO 60 0 min 0,000 mm 0 W/m -2,3 C -0,7 C 0,0 km/h (0 Bft) 0,00 %
04.01.2015 08:15 -0,9 C 0,0 C 0,0 C 89 % 1028,5 hPa 0,0 l/m 0,0 km/h (0 Bft) O-NO 65 0 min 0,000 mm 0 W/m -2,5 C -0,9 C 0,0 km/h (0 Bft) 0,00 %
04.01.2015 08:20 -1,2 C 0,0 C 0,0 C 89 % 1028,5 hPa 0,0 l/m 0,0 km/h (0 Bft) O-NO 70 0 min 0,000 mm 0 W/m -2,8 C -1,2 C 0,0 km/h (0 Bft) 0,00 %
04.01.2015 08:25 -1,2 C 0,0 C 0,0 C 89 % 1028,5 hPa 0,0 l/m 0,0 km/h (0 Bft) N 10 0 min 0,000 mm 0 W/m -2,8 C -1,2 C 0,0 km/h (0 Bft) 0,00 %
04.01.2015 08:30 -1,2 C 0,0 C 0,0 C 89 % 1028,5 hPa 0,0 l/m 0,0 km/h (0 Bft) NO 45 0 min 0,000 mm 0 W/m -2,8 C -1,2 C 0,0 km/h (0 Bft) 0,00 %
04.01.2015 08:35 -1,2 C 0,0 C 0,0 C 89 % 1028,5 hPa 0,0 l/m 0,0 km/h (0 Bft) O-NO 75 0 min 0,000 mm 0 W/m -2,8 C -1,2 C 0,0 km/h (0 Bft) 0,00 %
04.01.2015 08:40 -1,3 C 0,0 C 0,0 C 89 % 1028,5 hPa 0,0 l/m 0,0 km/h (0 Bft) NO 45 0 min 0,000 mm 0 W/m -2,9 C -1,3 C 0,0 km/h (0 Bft) 0,00 %
04.01.2015 08:45 -1,2 C 0,0 C 0,0 C 89 % 1028,5 hPa 0,0 l/m 0,0 km/h (0 Bft) S 170 0 min 0,000 mm 0 W/m -2,8 C -1,2 C 0,0 km/h (0 Bft) 0,00 %
04.01.2015 08:50 -1,2 C 0,0 C 0,0 C 89 % 1028,5 hPa 0,0 l/m 0,0 km/h (0 Bft) O-NO 75 0 min 0,000 mm 0 W/m -2,8 C -1,2 C 0,0 km/h (0 Bft) 0,00 %
04.01.2015 08:55 -1,2 C 0,0 C 0,0 C 89 % 1028,5 hPa 0,0 l/m 0,0 km/h (0 Bft) O-SO 115 0 min 0,000 mm 0 W/m -2,8 C -1,2 C 0,0 km/h (0 Bft) 0,00 %
04.01.2015 09:00 -1,2 C 0,0 C 0,0 C 89 % 1029,5 hPa 0,0 l/m 0,0 km/h (0 Bft) O-NO 75 0 min 0,000 mm 0 W/m -2,8 C -1,2 C 0,0 km/h (0 Bft) 0,00 %
04.01.2015 09:05 -1,2 C 0,0 C 0,0 C 89 % 1029,5 hPa 0,0 l/m 0,0 km/h (0 Bft) NO 40 0 min 0,000 mm 0 W/m -2,8 C -1,2 C 0,0 km/h (0 Bft) 0,00 %
04.01.2015 09:10 -1,2 C 0,0 C 0,0 C 90 % 1029,5 hPa 0,0 l/m 0,0 km/h (0 Bft) NW 325 0 min 0,000 mm 0 W/m -2,6 C -1,2 C 0,0 km/h (0 Bft) 0,00 %
04.01.2015 09:15 -1,2 C 0,0 C 0,0 C 90 % 1028,5 hPa 0,0 l/m 0,0 km/h (0 Bft) N-NO 30 0 min 0,000 mm 0 W/m -2,6 C -1,2 C 0,0 km/h (0 Bft) 0,00 %
04.01.2015 09:20 -1,1 C 0,0 C 0,0 C 90 % 1028,5 hPa 0,0 l/m 0,0 km/h (0 Bft) O-NO 75 0 min 0,000 mm 0 W/m -2,5 C -1,1 C 0,0 km/h (0 Bft) 0,00 %
04.01.2015 09:25 -1,0 C 0,0 C 0,0 C 90 % 1028,5 hPa 0,0 l/m 0,0 km/h (0 Bft) N 5 0 min 0,000 mm 0 W/m -2,4 C -1,0 C 0,0 km/h (0 Bft) 0,00 %
04.01.2015 09:30 -0,8 C 0,0 C 0,0 C 90 % 1028,5 hPa 0,0 l/m 0,0 km/h (0 Bft) N 350 0 min 0,000 mm 0 W/m -2,2 C -0,8 C 0,0 km/h (0 Bft) 0,00 %
04.01.2015 09:35 -0,1 C 0,0 C 0,0 C 90 % 1028,5 hPa 0,0 l/m 0,0 km/h (0 Bft) NO 35 0 min 0,000 mm 0 W/m -1,5 C -0,1 C 0,0 km/h (0 Bft) 0,00 %
04.01.2015 09:40 -0,1 C 0,0 C 0,0 C 90 % 1028,5 hPa 0,0 l/m 0,0 km/h (0 Bft) NW 305 0 min 0,000 mm 0 W/m -1,5 C -0,1 C 0,0 km/h (0 Bft) 0,00 %
04.01.2015 09:45 0,0 C 0,0 C 0,0 C 90 % 1029,5 hPa 0,0 l/m 0,0 km/h (0 Bft) W 270 0 min 0,000 mm 0 W/m -1,4 C 0,0 C 0,0 km/h (0 Bft) 0,00 %
04.01.2015 09:50 0,0 C 0,0 C 0,0 C 90 % 1029,5 hPa 0,0 l/m 0,0 km/h (0 Bft) W 260 0 min 0,000 mm 0 W/m -1,4 C 0,0 C 0,0 km/h (0 Bft) 0,00 %
04.01.2015 09:55 0,4 C 0,0 C 0,0 C 89 % 1029,5 hPa 0,0 l/m 0,0 km/h (0 Bft) S-SO 165 0 min 0,000 mm 0 W/m -1,2 C 0,4 C 0,0 km/h (0 Bft) 0,00 %
04.01.2015 10:00 0,3 C 0,0 C 0,0 C 89 % 1029,5 hPa 0,0 l/m 0,0 km/h (0 Bft) S 170 0 min 0,000 mm 0 W/m -1,3 C 0,3 C 0,0 km/h (0 Bft) 0,00 %
04.01.2015 10:05 0,2 C 0,0 C 0,0 C 89 % 1029,5 hPa 0,0 l/m 0,0 km/h (0 Bft) O 85 0 min 0,000 mm 0 W/m -1,4 C 0,2 C 0,0 km/h (0 Bft) 0,00 %
04.01.2015 10:10 0,4 C 0,0 C 0,0 C 89 % 1029,5 hPa 0,0 l/m 0,0 km/h (0 Bft) W 265 0 min 0,000 mm 0 W/m -1,2 C 0,4 C 0,0 km/h (0 Bft) 0,00 %
04.01.2015 10:15 0,8 C 0,0 C 0,0 C 90 % 1030,5 hPa 0,0 l/m 0,0 km/h (0 Bft) S-SW 210 0 min 0,000 mm 0 W/m -0,6 C 0,8 C 0,0 km/h (0 Bft) 0,00 %
04.01.2015 10:20 1,2 C 0,0 C 0,0 C 89 % 1030,5 hPa 0,0 l/m 0,0 km/h (0 Bft) SW 225 0 min 0,000 mm 0 W/m -0,4 C 1,2 C 0,0 km/h (0 Bft) 0,00 %
04.01.2015 10:25 1,7 C 0,0 C 0,0 C 89 % 1030,5 hPa 0,0 l/m 0,0 km/h (0 Bft) W 275 0 min 0,000 mm 0 W/m 0,1 C 1,7 C 0,0 km/h (0 Bft) 0,00 %
04.01.2015 10:30 1,9 C 0,0 C 0,0 C 88 % 1030,5 hPa 0,0 l/m 0,0 km/h (0 Bft) W 275 0 min 0,000 mm 0 W/m 0,1 C 1,9 C 0,0 km/h (0 Bft) 0,00 %
04.01.2015 10:35 2,2 C 0,0 C 0,0 C 88 % 1030,5 hPa 0,0 l/m 0,0 km/h (0 Bft) S 180 0 min 0,000 mm 0 W/m 0,4 C 2,2 C 0,0 km/h (0 Bft) 0,00 %
04.01.2015 10:40 2,4 C 0,0 C 0,0 C 86 % 1030,5 hPa 0,0 l/m 1,5 km/h (1 Bft) W 260 0 min 0,000 mm 0 W/m 0,3 C 2,4 C 1,5 km/h (1 Bft) 0,00 %
04.01.2015 10:45 2,3 C 0,0 C 0,0 C 86 % 1030,5 hPa 0,0 l/m 4,2 km/h (1 Bft) W-SW 240 0 min 0,000 mm 0 W/m 0,2 C 2,3 C 4,2 km/h (1 Bft) 0,00 %
04.01.2015 10:50 2,6 C 0,0 C 0,0 C 85 % 1030,5 hPa 0,0 l/m 1,2 km/h (1 Bft) SW 225 0 min 0,000 mm 0 W/m 0,3 C 2,6 C 1,2 km/h (1 Bft) 0,00 %
04.01.2015 10:55 3,1 C 0,0 C 0,0 C 84 % 1030,5 hPa 0,0 l/m 1,8 km/h (1 Bft) W 265 0 min 0,000 mm 0 W/m 0,7 C 3,1 C 1,8 km/h (1 Bft) 0,00 %
04.01.2015 11:00 3,3 C 0,0 C 0,0 C 83 % 1030,5 hPa 0,0 l/m 1,2 km/h (1 Bft) S-SW 195 0 min 0,000 mm 0 W/m 0,7 C 3,3 C 1,2 km/h (1 Bft) 0,00 %
04.01.2015 11:05 3,0 C 0,0 C 0,0 C 82 % 1030,5 hPa 0,0 l/m 3,6 km/h (1 Bft) NW 310 0 min 0,000 mm 0 W/m 0,2 C 3,0 C 3,6 km/h (1 Bft) 0,00 %
04.01.2015 11:10 3,4 C 0,0 C 0,0 C 81 % 1030,5 hPa 0,0 l/m 0,6 km/h (0 Bft) SW 230 0 min 0,000 mm 0 W/m 0,5 C 3,4 C 0,6 km/h (0 Bft) 0,00 %
04.01.2015 11:15 3,1 C 0,0 C 0,0 C 80 % 1030,5 hPa 0,0 l/m 7,6 km/h (2 Bft) S-SW 205 0 min 0,000 mm 0 W/m -0,0 C 1,0 C 7,6 km/h (2 Bft) 0,00 %
04.01.2015 11:20 3,1 C 0,0 C 0,0 C 81 % 1030,5 hPa 0,0 l/m 5,1 km/h (1 Bft) S-SW 205 0 min 0,000 mm 0 W/m 0,2 C 1,9 C 5,1 km/h (1 Bft) 0,00 %
04.01.2015 11:25 3,1 C 0,0 C 0,0 C 81 % 1030,5 hPa 0,0 l/m 3,3 km/h (1 Bft) W-NW 295 0 min 0,000 mm 0 W/m 0,2 C 3,1 C 3,3 km/h (1 Bft) 0,00 %
04.01.2015 11:30 3,0 C 0,0 C 0,0 C 80 % 1031,5 hPa 0,0 l/m 10,3 km/h (2 Bft) SW 230 0 min 0,000 mm 0 W/m -0,1 C 0,2 C 10,3 km/h (2 Bft) 0,00 %
04.01.2015 11:35 2,7 C 0,0 C 0,0 C 80 % 1031,5 hPa 0,0 l/m 13,3 km/h (3 Bft) W-NW 285 0 min 0,000 mm 0 W/m -0,4 C -0,8 C 13,3 km/h (3 Bft) 0,00 %
04.01.2015 11:40 2,8 C 0,0 C 0,0 C 80 % 1031,5 hPa 0,0 l/m 8,5 km/h (2 Bft) W 275 0 min 0,000 mm 0 W/m -0,3 C 0,4 C 8,5 km/h (2 Bft) 0,00 %
04.01.2015 11:45 2,8 C 0,0 C 0,0 C 80 % 1030,5 hPa 0,0 l/m 12,4 km/h (3 Bft) W-SW 250 0 min 0,000 mm 0 W/m -0,3 C -0,5 C 12,4 km/h (3 Bft) 0,00 %
04.01.2015 11:50 3,1 C 0,0 C 0,0 C 79 % 1030,5 hPa 0,0 l/m 5,1 km/h (1 Bft) W 275 0 min 0,000 mm 0 W/m -0,2 C 1,9 C 5,1 km/h (1 Bft) 0,00 %
04.01.2015 11:55 3,1 C 0,0 C 0,0 C 79 % 1030,5 hPa 0,3 l/m 12,4 km/h (3 Bft) W 280 0 min 0,000 mm 0 W/m -0,2 C -0,1 C 12,4 km/h (3 Bft) 0,00 %
04.01.2015 12:00 3,5 C 0,0 C 0,0 C 78 % 1030,5 hPa 0,0 l/m 8,8 km/h (2 Bft) W-NW 295 0 min 0,000 mm 0 W/m 0,0 C 1,2 C 8,8 km/h (2 Bft) 0,00 %
04.01.2015 12:05 3,7 C 0,0 C 0,0 C 78 % 1030,5 hPa 0,0 l/m 8,2 km/h (2 Bft) SW 230 0 min 0,000 mm 0 W/m 0,2 C 1,6 C 8,2 km/h (2 Bft) 0,00 %
04.01.2015 12:10 3,6 C 0,0 C 0,0 C 77 % 1030,5 hPa 0,0 l/m 10,9 km/h (2 Bft) W 265 0 min 0,000 mm 0 W/m -0,0 C 0,8 C 10,9 km/h (2 Bft) 0,00 %
04.01.2015 12:15 3,8 C 0,0 C 0,0 C 77 % 1030,5 hPa 0,0 l/m 5,1 km/h (1 Bft) W-NW 295 0 min 0,000 mm 0 W/m 0,1 C 2,7 C 5,1 km/h (1 Bft) 0,00 %
04.01.2015 12:20 3,7 C 0,0 C 0,0 C 77 % 1030,5 hPa 0,0 l/m 7,0 km/h (2 Bft) W-NW 300 0 min 0,000 mm 0 W/m 0,1 C 1,9 C 7,0 km/h (2 Bft) 0,00 %
04.01.2015 12:25 3,6 C 0,0 C 0,0 C 76 % 1030,5 hPa 0,0 l/m 7,3 km/h (2 Bft) N-NW 340 0 min 0,000 mm 0 W/m -0,2 C 1,7 C 7,3 km/h (2 Bft) 0,00 %
04.01.2015 12:30 3,6 C 0,0 C 0,0 C 76 % 1030,5 hPa 0,0 l/m 7,6 km/h (2 Bft) W-NW 300 0 min 0,000 mm 0 W/m -0,2 C 1,6 C 7,6 km/h (2 Bft) 0,00 %
04.01.2015 12:35 4,0 C 0,0 C 0,0 C 77 % 1030,5 hPa 0,0 l/m 4,2 km/h (1 Bft) SW 235 0 min 0,000 mm 0 W/m 0,3 C 4,0 C 4,2 km/h (1 Bft) 0,00 %
04.01.2015 12:40 3,6 C 0,0 C 0,0 C 76 % 1030,5 hPa 0,0 l/m 9,4 km/h (2 Bft) W-SW 245 0 min 0,000 mm 0 W/m -0,2 C 1,1 C 9,4 km/h (2 Bft) 0,00 %
04.01.2015 12:45 3,6 C 0,0 C 0,0 C 76 % 1031,5 hPa 0,0 l/m 6,1 km/h (2 Bft) N-NW 340 0 min 0,000 mm 0 W/m -0,2 C 2,1 C 6,1 km/h (2 Bft) 0,00 %
04.01.2015 12:50 3,2 C 0,0 C 0,0 C 77 % 1031,5 hPa 0,0 l/m 9,4 km/h (2 Bft) W-NW 300 0 min 0,000 mm 0 W/m -0,4 C 0,7 C 9,4 km/h (2 Bft) 0,00 %
04.01.2015 12:55 3,1 C 0,0 C 0,0 C 77 % 1031,5 hPa 0,0 l/m 4,8 km/h (1 Bft) W 270 0 min 0,000 mm 0 W/m -0,5 C 2,0 C 4,8 km/h (1 Bft) 0,00 %
04.01.2015 13:00 3,0 C 0,0 C 0,0 C 77 % 1031,5 hPa 0,0 l/m 9,4 km/h (2 Bft) W-NW 300 0 min 0,000 mm 0 W/m -0,6 C 0,4 C 9,4 km/h (2 Bft) 0,00 %
04.01.2015 13:05 3,5 C 0,0 C 0,0 C 77 % 1031,5 hPa 0,0 l/m 2,7 km/h (1 Bft) N-NO 15 0 min 0,000 mm 0 W/m -0,1 C 3,5 C 2,7 km/h (1 Bft) 0,00 %
04.01.2015 13:10 4,0 C 0,0 C 0,0 C 77 % 1031,5 hPa 0,0 l/m 3,0 km/h (1 Bft) SW 235 0 min 0,000 mm 0 W/m 0,3 C 4,0 C 3,0 km/h (1 Bft) 0,00 %
04.01.2015 13:15 4,2 C 0,0 C 0,0 C 75 % 1031,5 hPa 0,0 l/m 6,7 km/h (2 Bft) N-NW 335 0 min 0,000 mm 0 W/m 0,2 C 2,6 C 6,7 km/h (2 Bft) 0,00 %
04.01.2015 13:20 4,4 C 0,0 C 0,0 C 74 % 1031,5 hPa 0,0 l/m 10,3 km/h (2 Bft) NW 320 0 min 0,000 mm 0 W/m 0,2 C 1,9 C 10,3 km/h (2 Bft) 0,00 %
04.01.2015 13:25 4,5 C 0,0 C 0,0 C 73 % 1031,5 hPa 0,0 l/m 8,2 km/h (2 Bft) SW 230 0 min 0,000 mm 0 W/m 0,1 C 2,5 C 8,2 km/h (2 Bft) 0,00 %
04.01.2015 13:30 4,2 C 0,0 C 0,0 C 73 % 1031,5 hPa 0,0 l/m 7,3 km/h (2 Bft) W-NW 290 0 min 0,000 mm 0 W/m -0,2 C 2,4 C 7,3 km/h (2 Bft) 0,00 %
04.01.2015 13:35 4,1 C 0,0 C 0,0 C 73 % 1031,5 hPa 0,0 l/m 6,7 km/h (2 Bft) NW 315 0 min 0,000 mm 0 W/m -0,3 C 2,5 C 6,7 km/h (2 Bft) 0,00 %
04.01.2015 13:40 3,4 C 0,0 C 0,0 C 75 % 1031,5 hPa 0,0 l/m 10,6 km/h (2 Bft) N 350 0 min 0,000 mm 0 W/m -0,6 C 0,6 C 10,6 km/h (2 Bft) 0,00 %
04.01.2015 13:45 3,0 C 0,0 C 0,0 C 76 % 1031,5 hPa 0,0 l/m 11,8 km/h (2 Bft) N 0 0 min 0,000 mm 0 W/m -0,8 C -0,1 C 11,8 km/h (2 Bft) 0,00 %
04.01.2015 13:50 2,9 C 0,0 C 0,0 C 76 % 1031,5 hPa 0,0 l/m 10,0 km/h (2 Bft) NW 305 0 min 0,000 mm 0 W/m -0,9 C 0,1 C 10,0 km/h (2 Bft) 0,00 %
04.01.2015 13:55 2,7 C 0,0 C 0,0 C 76 % 1031,5 hPa 0,0 l/m 15,7 km/h (3 Bft) NW 325 0 min 0,000 mm 0 W/m -1,1 C -1,2 C 15,7 km/h (3 Bft) 0,00 %
04.01.2015 14:00 2,7 C 0,0 C 0,0 C 77 % 1031,5 hPa 0,0 l/m 13,6 km/h (3 Bft) S-SO 165 0 min 0,000 mm 0 W/m -0,9 C -0,8 C 13,6 km/h (3 Bft) 0,00 %
04.01.2015 14:05 2,7 C 0,0 C 0,0 C 77 % 1031,5 hPa 0,0 l/m 8,5 km/h (2 Bft) W-SW 255 0 min 0,000 mm 0 W/m -0,9 C 0,3 C 8,5 km/h (2 Bft) 0,00 %
04.01.2015 14:10 2,6 C 0,0 C 0,0 C 77 % 1031,5 hPa 0,0 l/m 4,8 km/h (1 Bft) W 280 0 min 0,000 mm 0 W/m -1,0 C 1,4 C 4,8 km/h (1 Bft) 0,00 %
04.01.2015 14:15 2,5 C 0,0 C 0,0 C 77 % 1031,5 hPa 0,0 l/m 7,9 km/h (2 Bft) NW 315 0 min 0,000 mm 0 W/m -1,1 C 0,2 C 7,9 km/h (2 Bft) 0,00 %
04.01.2015 14:20 2,7 C 0,0 C 0,0 C 77 % 1031,5 hPa 0,0 l/m 10,9 km/h (2 Bft) W-NW 295 0 min 0,000 mm 0 W/m -0,9 C -0,3 C 10,9 km/h (2 Bft) 0,00 %
04.01.2015 14:25 2,7 C 0,0 C 0,0 C 77 % 1031,5 hPa 0,0 l/m 6,4 km/h (2 Bft) NW 315 0 min 0,000 mm 0 W/m -0,9 C 0,9 C 6,4 km/h (2 Bft) 0,00 %
04.01.2015 14:30 2,8 C 0,0 C 0,0 C 77 % 1031,5 hPa 0,0 l/m 0,0 km/h (0 Bft) W-SW 255 0 min 0,000 mm 0 W/m -0,8 C 2,8 C 0,0 km/h (0 Bft) 0,00 %
04.01.2015 14:35 2,7 C 0,0 C 0,0 C 76 % 1031,5 hPa 0,0 l/m 10,9 km/h (2 Bft) NW 310 0 min 0,000 mm 0 W/m -1,1 C -0,3 C 10,9 km/h (2 Bft) 0,00 %
04.01.2015 14:40 2,7 C 0,0 C 0,0 C 76 % 1031,5 hPa 0,0 l/m 4,8 km/h (1 Bft) W 280 0 min 0,000 mm 0 W/m -1,1 C 1,6 C 4,8 km/h (1 Bft) 0,00 %
04.01.2015 14:45 2,7 C 0,0 C 0,0 C 76 % 1031,5 hPa 0,0 l/m 3,3 km/h (1 Bft) N-NW 335 0 min 0,000 mm 0 W/m -1,1 C 2,7 C 3,3 km/h (1 Bft) 0,00 %
04.01.2015 14:50 2,7 C 0,0 C 0,0 C 76 % 1031,5 hPa 0,0 l/m 1,2 km/h (1 Bft) W 280 0 min 0,000 mm 0 W/m -1,1 C 2,7 C 1,2 km/h (1 Bft) 0,00 %
04.01.2015 14:55 2,7 C 0,0 C 0,0 C 76 % 1031,5 hPa 0,0 l/m 5,4 km/h (1 Bft) W-SW 240 0 min 0,000 mm 0 W/m -1,1 C 1,3 C 5,4 km/h (1 Bft) 0,00 %
04.01.2015 15:00 2,8 C 0,0 C 0,0 C 76 % 1031,5 hPa 0,0 l/m 0,0 km/h (0 Bft) N 350 0 min 0,000 mm 0 W/m -1,0 C 2,8 C 0,0 km/h (0 Bft) 0,00 %
04.01.2015 15:05 2,8 C 0,0 C 0,0 C 76 % 1031,5 hPa 0,0 l/m 0,0 km/h (0 Bft) N 355 0 min 0,000 mm 0 W/m -1,0 C 2,8 C 0,0 km/h (0 Bft) 0,00 %
04.01.2015 15:10 2,8 C 0,0 C 0,0 C 76 % 1031,5 hPa 0,0 l/m 0,9 km/h (0 Bft) W-NW 285 0 min 0,000 mm 0 W/m -1,0 C 2,8 C 0,9 km/h (0 Bft) 0,00 %
04.01.2015 15:15 2,6 C 0,0 C 0,0 C 76 % 1032,5 hPa 0,0 l/m 2,4 km/h (1 Bft) W 265 0 min 0,000 mm 0 W/m -1,2 C 2,6 C 2,4 km/h (1 Bft) 0,00 %
04.01.2015 15:20 2,7 C 0,0 C 0,0 C 76 % 1032,5 hPa 0,0 l/m 2,1 km/h (1 Bft) NW 325 0 min 0,000 mm 0 W/m -1,1 C 2,7 C 2,1 km/h (1 Bft) 0,00 %
04.01.2015 15:25 2,7 C 0,0 C 0,0 C 76 % 1032,5 hPa 0,0 l/m 0,0 km/h (0 Bft) S 180 0 min 0,000 mm 0 W/m -1,1 C 2,7 C 0,0 km/h (0 Bft) 0,00 %
04.01.2015 15:30 2,6 C 0,0 C 0,0 C 77 % 1032,5 hPa 0,0 l/m 0,6 km/h (0 Bft) W 260 0 min 0,000 mm 0 W/m -1,0 C 2,6 C 0,6 km/h (0 Bft) 0,00 %
04.01.2015 15:35 2,4 C 0,0 C 0,0 C 77 % 1032,5 hPa 0,0 l/m 0,0 km/h (0 Bft) W-NW 290 0 min 0,000 mm 0 W/m -1,2 C 2,4 C 0,0 km/h (0 Bft) 0,00 %
04.01.2015 15:40 2,4 C 0,0 C 0,0 C 77 % 1032,5 hPa 0,0 l/m 0,0 km/h (0 Bft) W-NW 295 0 min 0,000 mm 0 W/m -1,2 C 2,4 C 0,0 km/h (0 Bft) 0,00 %
04.01.2015 15:45 2,4 C 0,0 C 0,0 C 77 % 1032,5 hPa 0,0 l/m 0,0 km/h (0 Bft) W 265 0 min 0,000 mm 0 W/m -1,2 C 2,4 C 0,0 km/h (0 Bft) 0,00 %
04.01.2015 15:50 2,3 C 0,0 C 0,0 C 77 % 1032,5 hPa 0,0 l/m 1,2 km/h (1 Bft) N-NW 330 0 min 0,000 mm 0 W/m -1,3 C 2,3 C 1,2 km/h (1 Bft) 0,00 %
04.01.2015 15:55 2,2 C 0,0 C 0,0 C 78 % 1032,5 hPa 0,0 l/m 3,3 km/h (1 Bft) N-NW 330 0 min 0,000 mm 0 W/m -1,2 C 2,2 C 3,3 km/h (1 Bft) 0,00 %
04.01.2015 16:00 2,3 C 0,0 C 0,0 C 78 % 1032,5 hPa 0,0 l/m 0,0 km/h (0 Bft) W 280 0 min 0,000 mm 0 W/m -1,1 C 2,3 C 0,0 km/h (0 Bft) 0,00 %
04.01.2015 16:05 2,2 C 0,0 C 0,0 C 79 % 1032,5 hPa 0,0 l/m 0,0 km/h (0 Bft) NW 305 0 min 0,000 mm 0 W/m -1,1 C 2,2 C 0,0 km/h (0 Bft) 0,00 %
04.01.2015 16:10 2,0 C 0,0 C 0,0 C 79 % 1032,5 hPa 0,0 l/m 0,0 km/h (0 Bft) W 265 0 min 0,000 mm 0 W/m -1,2 C 2,0 C 0,0 km/h (0 Bft) 0,00 %
04.01.2015 16:15 2,0 C 0,0 C 0,0 C 79 % 1032,5 hPa 0,0 l/m 0,0 km/h (0 Bft) W 280 0 min 0,000 mm 0 W/m -1,2 C 2,0 C 0,0 km/h (0 Bft) 0,00 %
04.01.2015 16:20 1,9 C 0,0 C 0,0 C 79 % 1032,5 hPa 0,0 l/m 0,0 km/h (0 Bft) SW 220 0 min 0,000 mm 0 W/m -1,3 C 1,9 C 0,0 km/h (0 Bft) 0,00 %
04.01.2015 16:25 1,8 C 0,0 C 0,0 C 80 % 1032,5 hPa 0,0 l/m 0,0 km/h (0 Bft) W 280 0 min 0,000 mm 0 W/m -1,3 C 1,8 C 0,0 km/h (0 Bft) 0,00 %
04.01.2015 16:30 1,8 C 0,0 C 0,0 C 80 % 1032,5 hPa 0,0 l/m 0,0 km/h (0 Bft) W-SW 245 0 min 0,000 mm 0 W/m -1,3 C 1,8 C 0,0 km/h (0 Bft) 0,00 %
04.01.2015 16:35 1,8 C 0,0 C 0,0 C 80 % 1032,5 hPa 0,0 l/m 0,0 km/h (0 Bft) W 265 0 min 0,000 mm 0 W/m -1,3 C 1,8 C 0,0 km/h (0 Bft) 0,00 %
04.01.2015 16:40 1,8 C 0,0 C 0,0 C 80 % 1032,5 hPa 0,0 l/m 0,0 km/h (0 Bft) W-NW 285 0 min 0,000 mm 0 W/m -1,3 C 1,8 C 0,0 km/h (0 Bft) 0,00 %
04.01.2015 16:45 1,6 C 0,0 C 0,0 C 80 % 1032,5 hPa 0,0 l/m 0,0 km/h (0 Bft) W-SW 240 0 min 0,000 mm 0 W/m -1,5 C 1,6 C 0,0 km/h (0 Bft) 0,00 %
04.01.2015 16:50 1,5 C 0,0 C 0,0 C 81 % 1032,5 hPa 0,0 l/m 0,0 km/h (0 Bft) W 275 0 min 0,000 mm 0 W/m -1,4 C 1,5 C 0,0 km/h (0 Bft) 0,00 %
04.01.2015 16:55 1,5 C 0,0 C 0,0 C 81 % 1032,5 hPa 0,0 l/m 0,0 km/h (0 Bft) W-NW 290 0 min 0,000 mm 0 W/m -1,4 C 1,5 C 0,0 km/h (0 Bft) 0,00 %
04.01.2015 17:00 1,5 C 0,0 C 0,0 C 81 % 1032,5 hPa 0,0 l/m 0,0 km/h (0 Bft) W 260 0 min 0,000 mm 0 W/m -1,4 C 1,5 C 0,0 km/h (0 Bft) 0,00 %
04.01.2015 17:05 1,6 C 0,0 C 0,0 C 81 % 1032,5 hPa 0,0 l/m 0,0 km/h (0 Bft) W 270 0 min 0,000 mm 0 W/m -1,3 C 1,6 C 0,0 km/h (0 Bft) 0,00 %
04.01.2015 17:10 1,5 C 0,0 C 0,0 C 82 % 1032,5 hPa 0,0 l/m 0,0 km/h (0 Bft) NW 320 0 min 0,000 mm 0 W/m -1,2 C 1,5 C 0,0 km/h (0 Bft) 0,00 %
04.01.2015 17:15 1,5 C 0,0 C 0,0 C 82 % 1032,5 hPa 0,0 l/m 0,0 km/h (0 Bft) W 265 0 min 0,000 mm 0 W/m -1,2 C 1,5 C 0,0 km/h (0 Bft) 0,00 %
04.01.2015 17:20 1,5 C 0,0 C 0,0 C 82 % 1032,5 hPa 0,0 l/m 0,0 km/h (0 Bft) W-SW 240 0 min 0,000 mm 0 W/m -1,2 C 1,5 C 0,0 km/h (0 Bft) 0,00 %
04.01.2015 17:25 1,5 C 0,0 C 0,0 C 82 % 1032,5 hPa 0,0 l/m 0,0 km/h (0 Bft) N-NW 340 0 min 0,000 mm 0 W/m -1,2 C 1,5 C 0,0 km/h (0 Bft) 0,00 %
04.01.2015 17:30 1,3 C 0,0 C 0,0 C 82 % 1032,5 hPa 0,0 l/m 0,0 km/h (0 Bft) S-SW 205 0 min 0,000 mm 0 W/m -1,4 C 1,3 C 0,0 km/h (0 Bft) 0,00 %
04.01.2015 17:35 1,2 C 0,0 C 0,0 C 82 % 1032,5 hPa 0,0 l/m 0,0 km/h (0 Bft) W 260 0 min 0,000 mm 0 W/m -1,5 C 1,2 C 0,0 km/h (0 Bft) 0,00 %
04.01.2015 17:40 1,0 C 0,0 C 0,0 C 82 % 1032,5 hPa 0,0 l/m 0,0 km/h (0 Bft) W-NW 290 0 min 0,000 mm 0 W/m -1,7 C 1,0 C 0,0 km/h (0 Bft) 0,00 %
04.01.2015 17:45 0,9 C 0,0 C 0,0 C 82 % 1033,5 hPa 0,0 l/m 0,0 km/h (0 Bft) N 350 0 min 0,000 mm 0 W/m -1,8 C 0,9 C 0,0 km/h (0 Bft) 0,00 %
04.01.2015 17:50 0,7 C 0,0 C 0,0 C 83 % 1033,5 hPa 0,0 l/m 0,0 km/h (0 Bft) O-NO 75 0 min 0,000 mm 0 W/m -1,8 C 0,7 C 0,0 km/h (0 Bft) 0,00 %
04.01.2015 17:55 0,6 C 0,0 C 0,0 C 84 % 1033,5 hPa 0,0 l/m 0,0 km/h (0 Bft) N-NW 345 0 min 0,000 mm 0 W/m -1,8 C 0,6 C 0,0 km/h (0 Bft) 0,00 %
04.01.2015 18:00 0,4 C 0,0 C 0,0 C 84 % 1033,5 hPa 0,0 l/m 0,0 km/h (0 Bft) NW 325 0 min 0,000 mm 0 W/m -2,0 C 0,4 C 0,0 km/h (0 Bft) 0,00 %
04.01.2015 18:05 0,4 C 0,0 C 0,0 C 84 % 1033,5 hPa 0,0 l/m 0,0 km/h (0 Bft) W-NW 295 0 min 0,000 mm 0 W/m -2,0 C 0,4 C 0,0 km/h (0 Bft) 0,00 %
04.01.2015 18:10 0,2 C 0,0 C 0,0 C 85 % 1033,5 hPa 0,0 l/m 0,0 km/h (0 Bft) N 355 0 min 0,000 mm 0 W/m -2,0 C 0,2 C 0,0 km/h (0 Bft) 0,00 %
04.01.2015 18:15 0,3 C 0,0 C 0,0 C 85 % 1032,5 hPa 0,0 l/m 0,0 km/h (0 Bft) W-SW 255 0 min 0,000 mm 0 W/m -1,9 C 0,3 C 0,0 km/h (0 Bft) 0,00 %
04.01.2015 18:20 0,4 C 0,0 C 0,0 C 85 % 1032,5 hPa 0,0 l/m 0,0 km/h (0 Bft) W-NW 290 0 min 0,000 mm 0 W/m -1,8 C 0,4 C 0,0 km/h (0 Bft) 0,00 %
04.01.2015 18:25 0,4 C 0,0 C 0,0 C 85 % 1032,5 hPa 0,0 l/m 0,0 km/h (0 Bft) W-SW 245 0 min 0,000 mm 0 W/m -1,8 C 0,4 C 0,0 km/h (0 Bft) 0,00 %
04.01.2015 18:30 0,3 C 0,0 C 0,0 C 85 % 1032,5 hPa 0,0 l/m 0,0 km/h (0 Bft) SW 215 0 min 0,000 mm 0 W/m -1,9 C 0,3 C 0,0 km/h (0 Bft) 0,00 %
04.01.2015 18:35 0,2 C 0,0 C 0,0 C 85 % 1032,5 hPa 0,0 l/m 0,0 km/h (0 Bft) S 185 0 min 0,000 mm 0 W/m -2,0 C 0,2 C 0,0 km/h (0 Bft) 0,00 %
04.01.2015 18:40 0,1 C 0,0 C 0,0 C 85 % 1032,5 hPa 0,0 l/m 0,0 km/h (0 Bft) SO 135 0 min 0,000 mm 0 W/m -2,1 C 0,1 C 0,0 km/h (0 Bft) 0,00 %
04.01.2015 18:45 -0,1 C 0,0 C 0,0 C 86 % 1032,5 hPa 0,0 l/m 0,0 km/h (0 Bft) O-NO 70 0 min 0,000 mm 0 W/m -2,2 C -0,1 C 0,0 km/h (0 Bft) 0,00 %
04.01.2015 18:50 -0,2 C 0,0 C 0,0 C 86 % 1032,5 hPa 0,0 l/m 0,0 km/h (0 Bft) O 90 0 min 0,000 mm 0 W/m -2,3 C -0,2 C 0,0 km/h (0 Bft) 0,00 %
04.01.2015 18:55 -0,3 C 0,0 C 0,0 C 86 % 1032,5 hPa 0,0 l/m 0,0 km/h (0 Bft) SO 130 0 min 0,000 mm 0 W/m -2,3 C -0,3 C 0,0 km/h (0 Bft) 0,00 %
04.01.2015 19:00 -0,2 C 0,0 C 0,0 C 86 % 1033,5 hPa 0,0 l/m 0,0 km/h (0 Bft) N-NW 340 0 min 0,000 mm 0 W/m -2,3 C -0,2 C 0,0 km/h (0 Bft) 0,00 %
04.01.2015 19:05 -0,3 C 0,0 C 0,0 C 86 % 1033,5 hPa 0,0 l/m 0,0 km/h (0 Bft) N-NO 15 0 min 0,000 mm 0 W/m -2,3 C -0,3 C 0,0 km/h (0 Bft) 0,00 %
04.01.2015 19:10 -0,2 C 0,0 C 0,0 C 87 % 1033,5 hPa 0,0 l/m 0,0 km/h (0 Bft) N-NO 15 0 min 0,000 mm 0 W/m -2,1 C -0,2 C 0,0 km/h (0 Bft) 0,00 %
04.01.2015 19:15 0,0 C 0,0 C 0,0 C 87 % 1033,5 hPa 0,0 l/m 0,0 km/h (0 Bft) SW 235 0 min 0,000 mm 0 W/m -1,9 C 0,0 C 0,0 km/h (0 Bft) 0,00 %
04.01.2015 19:20 0,0 C 0,0 C 0,0 C 87 % 1033,5 hPa 0,0 l/m 0,0 km/h (0 Bft) W-NW 300 0 min 0,000 mm 0 W/m -1,9 C 0,0 C 0,0 km/h (0 Bft) 0,00 %
04.01.2015 19:25 0,0 C 0,0 C 0,0 C 87 % 1033,5 hPa 0,0 l/m 0,0 km/h (0 Bft) N 0 0 min 0,000 mm 0 W/m -1,9 C 0,0 C 0,0 km/h (0 Bft) 0,00 %
04.01.2015 19:30 0,0 C 0,0 C 0,0 C 87 % 1033,5 hPa 0,0 l/m 0,0 km/h (0 Bft) O-NO 70 0 min 0,000 mm 0 W/m -1,9 C 0,0 C 0,0 km/h (0 Bft) 0,00 %
04.01.2015 19:35 0,3 C 0,0 C 0,0 C 87 % 1033,5 hPa 0,0 l/m 0,0 km/h (0 Bft) W-NW 295 0 min 0,000 mm 0 W/m -1,6 C 0,3 C 0,0 km/h (0 Bft) 0,00 %
04.01.2015 19:40 0,3 C 0,0 C 0,0 C 87 % 1033,5 hPa 0,0 l/m 0,0 km/h (0 Bft) W 270 0 min 0,000 mm 0 W/m -1,6 C 0,3 C 0,0 km/h (0 Bft) 0,00 %
04.01.2015 19:45 0,4 C 0,0 C 0,0 C 86 % 1033,5 hPa 0,0 l/m 0,0 km/h (0 Bft) SW 230 0 min 0,000 mm 0 W/m -1,7 C 0,4 C 0,0 km/h (0 Bft) 0,00 %
04.01.2015 19:50 0,6 C 0,0 C 0,0 C 86 % 1033,5 hPa 0,0 l/m 0,0 km/h (0 Bft) N-NW 335 0 min 0,000 mm 0 W/m -1,5 C 0,6 C 0,0 km/h (0 Bft) 0,00 %
04.01.2015 19:55 0,6 C 0,0 C 0,0 C 86 % 1033,5 hPa 0,0 l/m 3,0 km/h (1 Bft) W-SW 250 0 min 0,000 mm 0 W/m -1,5 C 0,6 C 3,0 km/h (1 Bft) 0,00 %
04.01.2015 20:00 0,5 C 0,0 C 0,0 C 86 % 1033,5 hPa 0,0 l/m 3,0 km/h (1 Bft) W-SW 240 0 min 0,000 mm 0 W/m -1,6 C 0,5 C 3,0 km/h (1 Bft) 0,00 %
04.01.2015 20:05 0,5 C 0,0 C 0,0 C 85 % 1033,5 hPa 0,0 l/m 2,4 km/h (1 Bft) W 260 0 min 0,000 mm 0 W/m -1,7 C 0,5 C 2,4 km/h (1 Bft) 0,00 %
04.01.2015 20:10 0,5 C 0,0 C 0,0 C 85 % 1033,5 hPa 0,0 l/m 0,3 km/h (0 Bft) W 260 0 min 0,000 mm 0 W/m -1,7 C 0,5 C 0,3 km/h (0 Bft) 0,00 %
04.01.2015 20:15 0,5 C 0,0 C 0,0 C 85 % 1033,5 hPa 0,0 l/m 0,0 km/h (0 Bft) O-NO 60 0 min 0,000 mm 0 W/m -1,7 C 0,5 C 0,0 km/h (0 Bft) 0,00 %
04.01.2015 20:20 0,2 C 0,0 C 0,0 C 85 % 1033,5 hPa 0,0 l/m 3,3 km/h (1 Bft) O 100 0 min 0,000 mm 0 W/m -2,0 C 0,2 C 3,3 km/h (1 Bft) 0,00 %
04.01.2015 20:25 -0,1 C 0,0 C 0,0 C 86 % 1033,5 hPa 0,0 l/m 2,1 km/h (1 Bft) O-NO 65 0 min 0,000 mm 0 W/m -2,2 C -0,1 C 2,1 km/h (1 Bft) 0,00 %
04.01.2015 20:30 -0,2 C 0,0 C 0,0 C 86 % 1033,5 hPa 0,0 l/m 0,0 km/h (0 Bft) N-NW 335 0 min 0,000 mm 0 W/m -2,3 C -0,2 C 0,0 km/h (0 Bft) 0,00 %
04.01.2015 20:35 -0,1 C 0,0 C 0,0 C 87 % 1033,5 hPa 0,0 l/m 0,3 km/h (0 Bft) SW 235 0 min 0,000 mm 0 W/m -2,0 C -0,1 C 0,3 km/h (0 Bft) 0,00 %
04.01.2015 20:40 0,1 C 0,0 C 0,0 C 87 % 1033,5 hPa 0,0 l/m 2,1 km/h (1 Bft) W 260 0 min 0,000 mm 0 W/m -1,8 C 0,1 C 2,1 km/h (1 Bft) 0,00 %
04.01.2015 20:45 0,1 C 0,0 C 0,0 C 87 % 1034,5 hPa 0,0 l/m 0,0 km/h (0 Bft) S-SW 195 0 min 0,000 mm 0 W/m -1,8 C 0,1 C 0,0 km/h (0 Bft) 0,00 %
04.01.2015 20:50 0,0 C 0,0 C 0,0 C 87 % 1034,5 hPa 0,0 l/m 0,9 km/h (0 Bft) O-SO 115 0 min 0,000 mm 0 W/m -1,9 C 0,0 C 0,9 km/h (0 Bft) 0,00 %
04.01.2015 20:55 -0,5 C 0,0 C 0,0 C 87 % 1034,5 hPa 0,0 l/m 0,0 km/h (0 Bft) O-SO 115 0 min 0,000 mm 0 W/m -2,4 C -0,5 C 0,0 km/h (0 Bft) 0,00 %
04.01.2015 21:00 -0,6 C 0,0 C 0,0 C 87 % 1033,5 hPa 0,0 l/m 1,5 km/h (1 Bft) O 90 0 min 0,000 mm 0 W/m -2,5 C -0,6 C 1,5 km/h (1 Bft) 0,00 %
04.01.2015 21:05 -0,5 C 0,0 C 0,0 C 88 % 1033,5 hPa 0,0 l/m 2,7 km/h (1 Bft) O 90 0 min 0,000 mm 0 W/m -2,2 C -0,5 C 2,7 km/h (1 Bft) 0,00 %
04.01.2015 21:10 -0,5 C 0,0 C 0,0 C 88 % 1033,5 hPa 0,0 l/m 0,0 km/h (0 Bft) N-NO 30 0 min 0,000 mm 0 W/m -2,2 C -0,5 C 0,0 km/h (0 Bft) 0,00 %
04.01.2015 21:15 -0,6 C 0,0 C 0,0 C 88 % 1033,5 hPa 0,0 l/m 0,0 km/h (0 Bft) NO 50 0 min 0,000 mm 0 W/m -2,3 C -0,6 C 0,0 km/h (0 Bft) 0,00 %
04.01.2015 21:20 -0,6 C 0,0 C 0,0 C 88 % 1033,5 hPa 0,0 l/m 0,0 km/h (0 Bft) O-NO 65 0 min 0,000 mm 0 W/m -2,3 C -0,6 C 0,0 km/h (0 Bft) 0,00 %
04.01.2015 21:25 -0,5 C 0,0 C 0,0 C 88 % 1033,5 hPa 0,0 l/m 0,0 km/h (0 Bft) S-SO 160 0 min 0,000 mm 0 W/m -2,2 C -0,5 C 0,0 km/h (0 Bft) 0,00 %
04.01.2015 21:30 -0,5 C 0,0 C 0,0 C 88 % 1033,5 hPa 0,0 l/m 0,0 km/h (0 Bft) NO 45 0 min 0,000 mm 0 W/m -2,2 C -0,5 C 0,0 km/h (0 Bft) 0,00 %
04.01.2015 21:35 -0,6 C 0,0 C 0,0 C 88 % 1033,5 hPa 0,0 l/m 1,8 km/h (1 Bft) O-SO 120 0 min 0,000 mm 0 W/m -2,3 C -0,6 C 1,8 km/h (1 Bft) 0,00 %
04.01.2015 21:40 -0,4 C 0,0 C 0,0 C 88 % 1033,5 hPa 0,0 l/m 1,8 km/h (1 Bft) O-NO 75 0 min 0,000 mm 0 W/m -2,1 C -0,4 C 1,8 km/h (1 Bft) 0,00 %
04.01.2015 21:45 -0,1 C 0,0 C 0,0 C 89 % 1034,5 hPa 0,0 l/m 0,0 km/h (0 Bft) O 85 0 min 0,000 mm 0 W/m -1,7 C -0,1 C 0,0 km/h (0 Bft) 0,00 %
04.01.2015 21:50 -0,1 C 0,0 C 0,0 C 88 % 1034,5 hPa 0,0 l/m 0,0 km/h (0 Bft) S 190 0 min 0,000 mm 0 W/m -1,8 C -0,1 C 0,0 km/h (0 Bft) 0,00 %
04.01.2015 21:55 -0,3 C 0,0 C 0,0 C 88 % 1034,5 hPa 0,0 l/m 0,0 km/h (0 Bft) N 10 0 min 0,000 mm 0 W/m -2,0 C -0,3 C 0,0 km/h (0 Bft) 0,00 %
04.01.2015 22:00 -0,2 C 0,0 C 0,0 C 89 % 1033,5 hPa 0,0 l/m 0,0 km/h (0 Bft) O-SO 110 0 min 0,000 mm 0 W/m -1,8 C -0,2 C 0,0 km/h (0 Bft) 0,00 %
04.01.2015 22:05 -0,4 C 0,0 C 0,0 C 88 % 1033,5 hPa 0,0 l/m 0,0 km/h (0 Bft) N 0 0 min 0,000 mm 0 W/m -2,1 C -0,4 C 0,0 km/h (0 Bft) 0,00 %
04.01.2015 22:10 -0,5 C 0,0 C 0,0 C 88 % 1033,5 hPa 0,0 l/m 0,0 km/h (0 Bft) O 85 0 min 0,000 mm 0 W/m -2,2 C -0,5 C 0,0 km/h (0 Bft) 0,00 %
04.01.2015 22:15 -0,5 C 0,0 C 0,0 C 88 % 1034,5 hPa 0,0 l/m 0,0 km/h (0 Bft) NO 40 0 min 0,000 mm 0 W/m -2,2 C -0,5 C 0,0 km/h (0 Bft) 0,00 %
04.01.2015 22:20 -0,6 C 0,0 C 0,0 C 88 % 1034,5 hPa 0,0 l/m 0,0 km/h (0 Bft) O-SO 105 0 min 0,000 mm 0 W/m -2,3 C -0,6 C 0,0 km/h (0 Bft) 0,00 %
04.01.2015 22:25 -0,5 C 0,0 C 0,0 C 88 % 1034,5 hPa 0,0 l/m 0,6 km/h (0 Bft) NO 55 0 min 0,000 mm 0 W/m -2,2 C -0,5 C 0,6 km/h (0 Bft) 0,00 %
04.01.2015 22:30 -0,6 C 0,0 C 0,0 C 88 % 1034,5 hPa 0,0 l/m 0,0 km/h (0 Bft) O 100 0 min 0,000 mm 0 W/m -2,3 C -0,6 C 0,0 km/h (0 Bft) 0,00 %
04.01.2015 22:35 -0,6 C 0,0 C 0,0 C 88 % 1034,5 hPa 0,0 l/m 0,0 km/h (0 Bft) SW 235 0 min 0,000 mm 0 W/m -2,3 C -0,6 C 0,0 km/h (0 Bft) 0,00 %
04.01.2015 22:40 -0,6 C 0,0 C 0,0 C 88 % 1034,5 hPa 0,0 l/m 0,0 km/h (0 Bft) N-NW 345 0 min 0,000 mm 0 W/m -2,3 C -0,6 C 0,0 km/h (0 Bft) 0,00 %
04.01.2015 22:45 -0,6 C 0,0 C 0,0 C 88 % 1033,5 hPa 0,0 l/m 0,0 km/h (0 Bft) NO 40 0 min 0,000 mm 0 W/m -2,3 C -0,6 C 0,0 km/h (0 Bft) 0,00 %
04.01.2015 22:50 -0,7 C 0,0 C 0,0 C 88 % 1033,5 hPa 0,0 l/m 0,0 km/h (0 Bft) N-NW 330 0 min 0,000 mm 0 W/m -2,4 C -0,7 C 0,0 km/h (0 Bft) 0,00 %
04.01.2015 22:55 -0,6 C 0,0 C 0,0 C 88 % 1033,5 hPa 0,0 l/m 0,0 km/h (0 Bft) O-NO 60 0 min 0,000 mm 0 W/m -2,3 C -0,6 C 0,0 km/h (0 Bft) 0,00 %
04.01.2015 23:00 -0,4 C 0,0 C 0,0 C 89 % 1034,5 hPa 0,0 l/m 0,0 km/h (0 Bft) O-NO 65 0 min 0,000 mm 0 W/m -2,0 C -0,4 C 0,0 km/h (0 Bft) 0,00 %
04.01.2015 23:05 -0,4 C 0,0 C 0,0 C 89 % 1034,5 hPa 0,0 l/m 0,0 km/h (0 Bft) NO 35 0 min 0,000 mm 0 W/m -2,0 C -0,4 C 0,0 km/h (0 Bft) 0,00 %
04.01.2015 23:10 -0,4 C 0,0 C 0,0 C 89 % 1034,5 hPa 0,0 l/m 0,0 km/h (0 Bft) O-NO 75 0 min 0,000 mm 0 W/m -2,0 C -0,4 C 0,0 km/h (0 Bft) 0,00 %
04.01.2015 23:15 -0,3 C 0,0 C 0,0 C 89 % 1033,5 hPa 0,0 l/m 0,0 km/h (0 Bft) O-NO 70 0 min 0,000 mm 0 W/m -1,9 C -0,3 C 0,0 km/h (0 Bft) 0,00 %
04.01.2015 23:20 -0,3 C 0,0 C 0,0 C 88 % 1033,5 hPa 0,0 l/m 0,0 km/h (0 Bft) O-NO 75 0 min 0,000 mm 0 W/m -2,0 C -0,3 C 0,0 km/h (0 Bft) 0,00 %
04.01.2015 23:25 -0,3 C 0,0 C 0,0 C 89 % 1033,5 hPa 0,0 l/m 0,0 km/h (0 Bft) O 85 0 min 0,000 mm 0 W/m -1,9 C -0,3 C 0,0 km/h (0 Bft) 0,00 %
04.01.2015 23:30 -0,2 C 0,0 C 0,0 C 89 % 1034,5 hPa 0,0 l/m 0,0 km/h (0 Bft) O-NO 60 0 min 0,000 mm 0 W/m -1,8 C -0,2 C 0,0 km/h (0 Bft) 0,00 %
04.01.2015 23:35 -0,2 C 0,0 C 0,0 C 89 % 1034,5 hPa 0,0 l/m 0,0 km/h (0 Bft) O 85 0 min 0,000 mm 0 W/m -1,8 C -0,2 C 0,0 km/h (0 Bft) 0,00 %
04.01.2015 23:40 -0,3 C 0,0 C 0,0 C 88 % 1034,5 hPa 0,0 l/m 0,0 km/h (0 Bft) N 355 0 min 0,000 mm 0 W/m -2,0 C -0,3 C 0,0 km/h (0 Bft) 0,00 %
04.01.2015 23:45 -0,3 C 0,0 C 0,0 C 88 % 1034,5 hPa 0,0 l/m 0,0 km/h (0 Bft) W 265 0 min 0,000 mm 0 W/m -2,0 C -0,3 C 0,0 km/h (0 Bft) 0,00 %
04.01.2015 23:50 -0,4 C 0,0 C 0,0 C 88 % 1034,5 hPa 0,0 l/m 0,0 km/h (0 Bft) SO 145 0 min 0,000 mm 0 W/m -2,1 C -0,4 C 0,0 km/h (0 Bft) 0,00 %
04.01.2015 23:55 -0,5 C 0,0 C 0,0 C 89 % 1034,5 hPa 0,0 l/m 0,0 km/h (0 Bft) SO 140 0 min 0,000 mm 0 W/m -2,1 C -0,5 C 0,0 km/h (0 Bft) 0,00 %
_ Min-Zeit 08:40 00:00 00:00 13:25 00:00 - 00:25 - - - - - 08:40 02:00 00:25 00:00
Minimum _ -1,3 C 0,0 C 0,0 C 73 % 1020,5 hPa - 0,0 km/h (0 Bft) - - - - - -2,9 C -3,6 C 0,0 km/h (0 Bft) 0,00 %
_ Max-Zeit 13:25 00:00 00:00 00:00 20:45 02:35 02:00 - - 00:00 00:00 00:00 11:00 12:35 02:00 00:00
Maximum _ 4,5 C 0,0 C 0,0 C 91 % 1034,5 hPa 0,3 l/m 21,5 km/h
W-NW (4 Bft)
- - 0 min 0,000 mm 0 W/m 0,7 C 4,0 C 21,5 km/h
W-NW (4 Bft)
0,00 %
Durchschnitt _ 0,9 C 0,0 C 0,0 C 85 % 1029,8 hPa #0,6 l/m 2,3 km/h (1 Bft) W - #0 min. #0,000 mm 0 W/m -1,3 C 0,4 C 2,3 km/h (1 Bft) 0,00 %
Wetterstation Gdesweiler